This is the latest recevied weather packets stored in our database for station/object WX7FGZ-5. If no packets are shown the sender has not sent any weather packets the latest 10 day(s).
| Time | Temp. | Humidity | Pressure | Rain* | Wind** | Luminosity | Snow |
|---|---|---|---|---|---|---|---|
| 1777665234 | 15.56° C | 23% | 1020.9 hPa | 0 mm | - | 452 W/m² | - |
| 1777664684 | 15° C | 22% | 1021 hPa | 0 mm | - | 320 W/m² | - |
| 1777664384 | 15° C | 22% | 1021.2 hPa | 0 mm | - | 285 W/m² | - |
| 1777664378 | 15° C | 22% | 1021.2 hPa | 0 mm | - | 264 W/m² | - |
| 1777664084 | 15° C | 22% | 1021.2 hPa | 0 mm | - | 264 W/m² | - |
| 1777663784 | 15.56° C | 22% | 1021.2 hPa | 0 mm | - | 248 W/m² | - |
| 1777663136 | 14.44° C | 22% | 1021.2 hPa | 0 mm | - | 390 W/m² | - |
| 1777662970 | 15° C | 23% | 1021.3 hPa | 0 mm | - | 374 W/m² | - |
| 1777662884 | 14.44° C | 22% | 1021.2 hPa | 0 mm | - | 390 W/m² | - |
| 1777662585 | 15° C | 23% | 1021.3 hPa | 0 mm | - | 374 W/m² | - |
| 1777662561 | 14.44° C | 23% | 1021.3 hPa | 0 mm | - | 867 W/m² | - |
| 1777662283 | 14.44° C | 23% | 1021.3 hPa | 0 mm | - | 867 W/m² | - |
| 1777661984 | 14.44° C | 24% | 1021.3 hPa | 0 mm | - | 274 W/m² | - |
| 1777661735 | 14.44° C | 23% | 1021.5 hPa | 0 mm | - | 343 W/m² | - |
| 1777661390 | 14.44° C | 24% | 1021.6 hPa | 0 mm | - | 427 W/m² | - |
| 1777661384 | 14.44° C | 23% | 1021.5 hPa | 0 mm | - | 343 W/m² | - |
| 1777661084 | 14.44° C | 24% | 1021.6 hPa | 0 mm | - | 427 W/m² | - |
| 1777660789 | 14.44° C | 25% | 1021.7 hPa | 0 mm | - | 330 W/m² | - |
| 1777660484 | 13.89° C | 24% | 1021.8 hPa | 0 mm | - | 269 W/m² | - |
| 1777659913 | 14.44° C | 24% | 1021.7 hPa | 0 mm | - | 281 W/m² | - |
| 1777659584 | 14.44° C | 24% | 1021.7 hPa | 0 mm | - | 281 W/m² | - |
| 1777659284 | 15° C | 23% | 1021.7 hPa | 0 mm | - | 445 W/m² | - |
| 1777658989 | 14.44° C | 24% | 1021.8 hPa | 0 mm | - | 359 W/m² | - |
| 1777658917 | 13.89° C | 24% | 1021.8 hPa | 0 mm | - | 318 W/m² | - |
| 1777658684 | 13.89° C | 24% | 1021.8 hPa | 0 mm | - | 318 W/m² | - |
* Rain latest hour (hover to see other rain measurements)
** Current wind speed in m/s (hover to see current wind gust speed)